SCP
0 0 0 0 0 0 0 0 0 0 0 0 0 0 0 0 0 0 0 0 0 0 0 0 0 0 0 0 0 0 0 0 0 0 0 0 0 0 0 0 0 0 0
0 0 0 0 0 0 0 0 0 0 0 0 0 0 0 0 0 0 0 -0 0 0 0 0 0 0 0 0 0 0 0 0 0 0 0 0 0 0 0 0 0 0 0
0 0 0 0 0 0 0 0 0 0 0 0 0 0 -0 0 0 -0 -0 -0 -0 0 0 0 0 0 0 0 0 0 0 0 0 0 0 0 0 0 0 0 0 0 0
0 0 0 0 0 0 0 0 0 0 0 0 0 0 0 0 0 -0 -0 -0 -0 -0 0 0 0 0 0 0 0 0 0 0 0 0 0 0 0 0 0 0 0 0 0
0 0 0 0 0 0 0 0 0 0 0 0 0 0 0 0 0 -0 -0 -0 -0 -0 -0 -0 -0 -0 -0 -0 0 0 0 0 0 0 0 0 0 0 0 0 0 0 0
0 0 0 0 0 0 0 0 0 0 0 0 0 0 0 0 0 0 0 -0 -0 -0 -0 -0 -0 -0 -0 -0 -0 -0 0 0 0 0 0 0 0 0 0 0 0 0 0
0 0 0 0 0 0 0 0 0 0 0 0 0 0 0 0 0 0 0 0 -0 -0 -0 0 0 -0 -0 -0 -0 -0 -0 0 0 0 0 0 0 0 0 0 0 0 0
0 0 0 0 0 0 0 0 0 0 0 0 0 0 0 0 0 0 0 0 0 0 -0 -0 -0 -0 -0 -0 0 0 0 -0 0 0 0 0 0 0 0 0 0 0 0
0 0 0 0 0 0 0 0 0 0 0 0 0 0 0 0 0 0 0 0 0 0 0 0 -0 0 -0 -0 -0 -0 0 -0 -0 -0 0 0 0 0 0 0 0 0 0
0 0 0 0 0 0 0 0 0 0 0 0 0 0 0 0 0 0 0 0 0 0 0 0 0 -0 -0 -0 0 0 -0 0 -0 -0 0 0 0 -0 -0 0 0 0 0
0 0 0 0 0 0 0 0 0 0 0 0 0 0 0 0 0 0 0 0 0 0 0 0 0 -0 -0 -0 0 -0 -0 -0 0 0 0 0 0 0 0 0 0 0 0
0 0 0 0 0 0 0 0 0 0 0 0 0 0 0 0 0 0 0 0 0 0 0 0 0 0 0 -0 0 0 0 0 0 0 0 0 0 0 0 0 0 0 0
0 0 0 0 0 0 0 0 0 0 0 0 0 0 0 0 0 0 0 0 0 0 0 0 0 0 0 0 0 0 0 0 0 0 0 0 0 0 0 0 0 0 0
0 0 0 0 0 0 0 0 0 0 0 0 0 0 0 0 0 0 0 0 0 0 0 0 0 0 0 0 0 0 0 0 0 0 0 0 0 0 0 0 0 0 0
0 0 0 0 0 0 0 0 0 0 0 0 0 0 0 0 0 0 0 0 0 0 0 0 0 0 0 0 0 0 0 0 0 0 0 0 0 0 0 0 0 0 0
0 0 0 0 0 0 0 0 0 0 0 0 0 0 0 0 0 0 0 0 0 0 0 0 0 0 0 0 0 0 0 0 0 0 0 0 0 0 0 0 0 0 -0
0 0 0 0 0 0 0 0 0 0 0 0 0 0 0 0 0 -0 0 0 0 0 0 0 0 0 0 0 0 0 0 0 0 0 0 0 0 0 0 0 0 0 0
0 0 0 0 0 0 0 0 0 0 0 0 0 0 0 0 0 0 0 0 0 0 0 0 0 0 0 0 0 0 0 0 0 0 0 0 0 -0 -0 -0 -0 0 0
0 -0 0 0 0 0 0 0 0 0 0 0 0 0 0 0 0 0 0 0 0 0 0 0 0 0 0 0 0 0 0 0 0 0 0 0 0 -0 -0 0 -0 0 0
0 0 0 0 0 0 0 0 0 0 0 0 0 0 0 0 0 0 0 0 0 0 0 0 0 0 0 -0 -0 0 0 0 -0 -0 -0 -0 0 -0 -0 -0 -0 0 0
0 0 0 0 0 0 0 0 0 0 0 0 0 0 0 0 0 0 0 0 0 0 0 0 0 0 0 -0 0 0 0 0 0 -0 0 -0 -0 -0 -0 -0 -0 -0 -0
0 0 0 0 0 0 0 0 0 0 0 0 0 0 0 0 0 0 0 0 0 0 0 0 0 0 0 -0 -0 0 0 0 0 0 0 0 0 -0 0 0 -0 0 0
0 0 0 0 0 0 0 0 0 0 0 0 0 0 0 0 0 0 0 0 0 0 0 0 0 0 -0 -0 -0 -0 0 0 0 0 0 0 0 0 0 0 0 -0 -0
0 0 0 0 0 0 0 0 0 0 0 0 0 0 0 0 0 0 0 0 0 0 0 0 0 0 -0 -0 -0 -0 0 0 0 0 0 0 0 0 0 0 0 0 -0
0 0 0 0 0 0 0 0 0 0 0 0 0 0 0 0 0 0 0 0 0 0 0 0 0 0 -0 -0 0 -0 -0 0 0 0 0 0 0 0 0 0 0 0 0
0 0 0 0 0 0 0 0 0 0 0 0 0 0 0 0 0 0 0 0 0 0 0 0 0 0 -0 -0 -0 0 0 0 -0 0 0 0 -0 0 0 0 0 0 0
Wind_Speed_500mb
41 41 45 46 47 44 50 53 56 56 49 42 37 28 27 30 37 36 40 38 39 35 29 21 15 13 12 9 11 13 16 14 21 32 26 26 24 22 25 25 29 28 26
39 41 44 47 46 48 51 51 53 60 69 67 56 37 28 29 32 37 39 46 42 49 46 37 29 20 16 14 6 9 9 6 24 40 43 43 42 38 34 31 28 21 16
42 44 47 46 46 45 45 44 48 52 56 58 58 53 43 37 37 36 36 37 40 39 44 44 40 30 24 23 19 16 24 26 47 59 57 48 48 41 39 30 23 20 20
41 42 48 52 49 47 42 38 41 43 45 50 50 53 51 45 41 40 39 36 35 35 35 34 35 35 30 30 26 17 30 43 45 47 46 42 36 34 23 24 23 21 24
41 42 40 44 46 48 48 40 35 40 41 41 44 40 39 36 34 34 38 36 33 31 30 30 31 31 33 26 28 26 13 19 21 27 34 33 28 27 33 29 27 30 23
36 42 38 42 50 47 45 46 35 43 43 40 42 38 38 44 49 36 40 41 37 32 31 28 25 23 27 28 27 21 30 26 29 29 32 35 29 25 31 24 23 29 25
32 36 37 40 42 44 41 41 45 49 49 49 47 49 48 39 37 35 39 38 41 39 35 31 28 25 24 30 23 25 20 19 20 20 24 22 22 26 31 29 30 30 25
31 37 41 47 52 49 43 36 38 39 42 52 52 49 50 47 38 37 32 29 36 36 33 33 32 30 28 21 25 20 24 27 25 24 25 26 26 25 26 23 27 23 19
27 31 36 41 44 44 43 48 41 39 46 44 52 58 56 52 49 45 33 39 39 31 32 35 30 24 20 18 21 23 23 26 26 24 24 24 21 18 17 18 19 16 17
24 29 30 35 41 39 34 44 50 46 48 49 47 50 51 49 47 46 38 33 41 42 33 30 33 29 21 19 16 19 21 25 21 17 19 19 15 14 11 13 17 16 14
18 23 27 30 37 38 34 35 37 39 41 46 46 46 47 49 47 43 47 45 36 34 42 33 29 27 24 19 19 18 20 19 15 8 10 14 11 8 9 7 7 9 13
17 20 24 28 35 33 29 31 27 33 37 44 45 49 47 48 49 50 43 49 41 36 40 32 30 28 20 16 15 16 18 13 10 8 9 14 17 19 14 10 7 3 2
12 14 20 21 25 34 32 33 38 33 34 36 41 47 48 49 51 50 48 39 38 41 36 36 34 30 37 26 25 20 19 16 17 11 14 16 15 17 18 17 17 17 20
9 9 13 15 17 25 28 25 26 29 31 35 36 40 43 45 50 54 50 42 33 33 40 40 32 33 31 34 25 26 20 17 15 15 15 14 14 12 16 21 25 26 23
7 5 6 11 14 22 25 21 23 21 24 30 35 32 38 40 44 46 47 41 36 31 32 36 37 33 36 30 27 31 24 21 17 14 14 14 12 12 15 17 17 19 22
7 8 8 15 13 16 22 19 19 17 16 25 28 31 33 33 38 41 43 36 31 26 31 36 32 25 34 38 28 25 24 28 17 16 15 13 11 12 18 23 18 14 13
13 8 10 12 8 15 21 23 24 20 12 13 27 32 33 38 38 40 37 32 23 22 32 32 38 31 26 26 26 25 22 21 17 22 16 14 12 12 15 13 6 6 8
6 6 9 11 13 15 18 27 22 18 17 20 23 26 31 36 41 37 38 26 27 25 27 30 33 36 30 19 20 21 14 10 14 15 16 18 15 12 10 8 7 8 9
16 10 12 13 12 17 18 20 21 17 21 28 26 26 30 28 32 36 33 31 28 26 24 24 26 29 32 29 21 15 14 15 16 10 9 10 10 6 4 2 7 5 7
7 10 10 14 15 16 17 18 19 22 25 28 28 32 35 32 31 32 31 26 25 24 22 22 22 24 27 27 23 21 14 8 5 3 1 2 6 6 2 2 8 6 8
9 5 12 14 11 15 19 20 22 20 23 28 31 33 38 36 23 28 29 27 25 22 19 21 20 19 20 27 22 16 14 8 9 8 1 6 3 1 2 4 6 8 11
7 3 11 11 15 17 18 21 26 27 24 29 34 36 37 29 23 27 31 28 24 22 22 23 23 20 19 24 23 17 15 11 5 2 8 1 3 7 6 1 1 7 14
6 6 17 16 14 20 23 23 22 26 30 29 32 32 28 26 26 28 27 24 24 23 26 25 23 21 20 18 24 15 12 12 6 4 5 5 8 8 6 5 5 11 20
16 14 15 17 14 22 23 17 20 25 27 24 23 22 22 24 25 22 26 24 20 23 27 30 27 19 18 19 18 10 10 12 7 5 3 6 3 7 9 9 7 10 7
5 8 12 17 17 23 24 20 21 21 22 24 14 18 19 20 17 19 20 24 29 23 24 32 29 21 17 18 13 8 8 7 4 4 3 15 12 5 3 13 8 5 1
10 16 17 18 21 21 24 28 26 16 20 20 21 17 18 17 21 16 23 34 39 26 25 29 31 32 26 14 10 4 7 5 6 4 2 12 29 9 7 4 6 2 7
Wind_Direction_500mb
24 30 28 30 29 28 29 23 22 18 11 12 11 21 27 34 39 40 34 32 38 40 37 35 36 31 34 31 357 328 318 267 216 202 197 172 161 162 146 138 115 122 127
37 35 33 37 33 29 26 31 29 27 38 36 37 38 35 32 27 37 34 37 41 42 39 35 36 30 27 35 34 24 318 300 203 171 151 137 129 125 123 121 111 103 83
46 45 41 36 35 32 31 31 31 36 36 37 39 40 40 39 48 48 41 38 39 38 34 32 30 35 39 32 41 60 125 155 159 140 124 121 127 126 130 120 104 87 73
51 45 44 42 39 36 31 30 34 36 41 40 40 46 47 53 55 49 42 38 40 40 36 35 29 37 39 47 46 87 91 113 120 120 123 128 126 130 136 131 119 97 86
50 47 44 32 29 29 31 35 42 35 37 42 41 41 48 51 47 45 44 34 29 28 37 38 36 40 42 52 58 65 110 118 121 124 118 129 128 132 130 133 123 117 107
46 40 44 41 38 35 38 37 48 41 42 46 43 37 36 37 41 41 35 34 33 33 33 36 37 30 46 52 60 72 80 98 119 120 121 124 131 132 130 141 147 139 123
45 49 44 31 32 39 48 41 57 50 52 47 42 41 38 35 32 47 45 39 42 41 38 40 40 42 57 56 63 67 84 94 98 117 121 116 138 139 148 141 147 145 133
57 48 51 47 47 48 42 42 57 44 33 47 45 39 41 42 37 41 33 41 37 34 38 35 39 65 55 48 51 91 96 98 100 104 106 110 119 126 144 136 143 132 123
61 54 47 42 43 41 39 38 42 59 54 44 55 47 47 45 41 37 37 41 37 35 38 40 40 46 50 55 70 73 108 104 105 104 100 102 107 119 123 145 154 145 131
69 52 51 43 38 43 47 50 52 67 61 54 48 47 43 42 46 42 40 37 35 41 45 41 46 49 54 58 78 84 103 105 118 106 92 93 92 93 114 145 179 210 175
68 53 51 50 46 49 51 52 59 65 60 54 47 42 43 39 35 32 39 38 39 39 40 38 49 51 51 48 54 71 92 110 116 106 83 61 42 68 102 133 144 171 210
62 56 52 52 50 48 50 43 45 51 54 52 48 42 45 39 33 33 32 36 42 37 42 38 40 45 44 61 73 58 65 102 125 98 71 69 67 63 72 82 94 90 291
65 60 49 53 47 45 42 44 43 48 49 49 44 36 35 32 29 25 29 28 35 35 42 45 52 51 47 64 70 71 68 74 83 70 82 89 81 73 58 65 88 85 95
89 64 37 32 47 37 23 18 27 35 38 41 38 33 33 30 25 25 22 22 35 38 45 45 48 53 51 57 67 72 72 81 86 90 90 88 90 88 80 86 99 102 100
54 77 23 36 26 18 19 4 2 25 25 28 33 25 20 24 22 23 21 24 28 37 51 47 53 52 46 52 54 56 68 74 79 85 81 85 92 87 106 105 112 109 107
18 24 23 10 14 9 13 23 29 29 35 39 30 23 11 22 18 26 22 17 22 37 46 49 41 52 46 46 63 58 58 60 70 78 86 95 101 103 124 128 114 103 103
9 44 30 18 5 3 8 17 13 15 20 21 11 15 18 16 21 15 9 12 22 29 42 41 42 39 35 44 61 60 55 54 60 71 74 82 105 121 138 151 119 96 125
333 83 37 27 9 5 1 15 15 27 28 29 29 23 20 15 12 19 23 26 31 34 34 36 33 33 32 23 30 33 43 68 78 81 70 69 82 102 127 140 134 139 152
51 88 48 15 5 2 357 19 19 24 18 11 1 3 8 13 6 5 16 21 24 28 30 27 24 27 28 27 24 28 16 86 77 65 77 78 71 60 74 150 180 175 192
15 35 25 1 357 349 344 346 349 357 357 358 359 1 357 358 359 10 16 21 27 28 28 20 16 11 22 20 24 27 32 34 62 52 281 313 292 276 289 247 223 225 179
336 263 350 344 338 341 341 337 337 337 343 345 347 354 352 351 5 13 22 18 12 13 11 9 9 3 354 7 14 19 15 28 357 337 259 270 279 255 175 167 205 222 189
292 226 330 307 316 328 330 327 333 337 342 338 337 339 350 1 9 10 1 355 358 358 355 352 349 353 348 346 358 5 11 9 5 316 355 155 53 92 127 205 170 197 184
189 312 323 333 337 343 318 319 323 328 330 331 333 338 346 351 356 359 2 21 16 10 0 345 334 333 333 328 337 347 355 360 19 97 185 110 72 53 35 30 101 151 152
284 268 290 314 325 340 352 348 327 327 339 330 337 339 345 349 353 5 6 2 359 356 358 359 349 333 326 326 326 331 337 357 20 76 174 200 89 24 30 25 97 130 152
307 297 292 324 314 320 337 331 320 322 339 337 345 343 346 350 358 347 352 353 343 341 347 343 350 351 341 336 341 328 329 357 350 97 170 203 202 353 17 39 52 93 68
288 291 297 302 290 312 331 332 337 325 341 342 348 334 333 338 334 348 345 341 343 337 316 324 336 343 333 339 341 318 319 3 321 309 304 210 210 286 237 137 129 13 350
Wind_Speed_850mb
41 41 45 46 47 44 50 53 56 56 49 42 37 28 27 30 37 36 40 38 39 35 29 21 15 13 12 9 11 13 16 14 21 32 26 26 24 22 25 25 29 28 26
39 41 44 47 46 48 51 51 53 60 69 67 56 37 28 29 32 37 39 46 42 49 46 37 29 20 16 14 6 9 9 6 24 40 43 43 42 38 34 31 28 21 16
42 44 47 46 46 45 45 44 48 52 56 58 58 53 43 37 37 36 36 37 40 39 44 44 40 30 24 23 19 16 24 26 47 59 57 48 48 41 39 30 23 20 20
41 42 48 52 49 47 42 38 41 43 45 50 50 53 51 45 41 40 39 36 35 35 35 34 35 35 30 30 26 17 30 43 45 47 46 42 36 34 23 24 23 21 24
41 42 40 44 46 48 48 40 35 40 41 41 44 40 39 36 34 34 38 36 33 31 30 30 31 31 33 26 28 26 13 19 21 27 34 33 28 27 33 29 27 30 23
36 42 38 42 50 47 45 46 35 43 43 40 42 38 38 44 49 36 40 41 37 32 31 28 25 23 27 28 27 21 30 26 29 29 32 35 29 25 31 24 23 29 25
32 36 37 40 42 44 41 41 45 49 49 49 47 49 48 39 37 35 39 38 41 39 35 31 28 25 24 30 23 25 20 19 20 20 24 22 22 26 31 29 30 30 25
31 37 41 47 52 49 43 36 38 39 42 52 52 49 50 47 38 37 32 29 36 36 33 33 32 30 28 21 25 20 24 27 25 24 25 26 26 25 26 23 27 23 19
27 31 36 41 44 44 43 48 41 39 46 44 52 58 56 52 49 45 33 39 39 31 32 35 30 24 20 18 21 23 23 26 26 24 24 24 21 18 17 18 19 16 17
24 29 30 35 41 39 34 44 50 46 48 49 47 50 51 49 47 46 38 33 41 42 33 30 33 29 21 19 16 19 21 25 21 17 19 19 15 14 11 13 17 16 14
18 23 27 30 37 38 34 35 37 39 41 46 46 46 47 49 47 43 47 45 36 34 42 33 29 27 24 19 19 18 20 19 15 8 10 14 11 8 9 7 7 9 13
17 20 24 28 35 33 29 31 27 33 37 44 45 49 47 48 49 50 43 49 41 36 40 32 30 28 20 16 15 16 18 13 10 8 9 14 17 19 14 10 7 3 2
12 14 20 21 25 34 32 33 38 33 34 36 41 47 48 49 51 50 48 39 38 41 36 36 34 30 37 26 25 20 19 16 17 11 14 16 15 17 18 17 17 17 20
9 9 13 15 17 25 28 25 26 29 31 35 36 40 43 45 50 54 50 42 33 33 40 40 32 33 31 34 25 26 20 17 15 15 15 14 14 12 16 21 25 26 23
7 5 6 11 14 22 25 21 23 21 24 30 35 32 38 40 44 46 47 41 36 31 32 36 37 33 36 30 27 31 24 21 17 14 14 14 12 12 15 17 17 19 22
7 8 8 15 13 16 22 19 19 17 16 25 28 31 33 33 38 41 43 36 31 26 31 36 32 25 34 38 28 25 24 28 17 16 15 13 11 12 18 23 18 14 13
13 8 10 12 8 15 21 23 24 20 12 13 27 32 33 38 38 40 37 32 23 22 32 32 38 31 26 26 26 25 22 21 17 22 16 14 12 12 15 13 6 6 8
6 6 9 11 13 15 18 27 22 18 17 20 23 26 31 36 41 37 38 26 27 25 27 30 33 36 30 19 20 21 14 10 14 15 16 18 15 12 10 8 7 8 9
16 10 12 13 12 17 18 20 21 17 21 28 26 26 30 28 32 36 33 31 28 26 24 24 26 29 32 29 21 15 14 15 16 10 9 10 10 6 4 2 7 5 7
7 10 10 14 15 16 17 18 19 22 25 28 28 32 35 32 31 32 31 26 25 24 22 22 22 24 27 27 23 21 14 8 5 3 1 2 6 6 2 2 8 6 8
9 5 12 14 11 15 19 20 22 20 23 28 31 33 38 36 23 28 29 27 25 22 19 21 20 19 20 27 22 16 14 8 9 8 1 6 3 1 2 4 6 8 11
7 3 11 11 15 17 18 21 26 27 24 29 34 36 37 29 23 27 31 28 24 22 22 23 23 20 19 24 23 17 15 11 5 2 8 1 3 7 6 1 1 7 14
6 6 17 16 14 20 23 23 22 26 30 29 32 32 28 26 26 28 27 24 24 23 26 25 23 21 20 18 24 15 12 12 6 4 5 5 8 8 6 5 5 11 20
16 14 15 17 14 22 23 17 20 25 27 24 23 22 22 24 25 22 26 24 20 23 27 30 27 19 18 19 18 10 10 12 7 5 3 6 3 7 9 9 7 10 7
5 8 12 17 17 23 24 20 21 21 22 24 14 18 19 20 17 19 20 24 29 23 24 32 29 21 17 18 13 8 8 7 4 4 3 15 12 5 3 13 8 5 1
10 16 17 18 21 21 24 28 26 16 20 20 21 17 18 17 21 16 23 34 39 26 25 29 31 32 26 14 10 4 7 5 6 4 2 12 29 9 7 4 6 2 7
Wind_Direction_850mb
24 30 28 30 29 28 29 23 22 18 11 12 11 21 27 34 39 40 34 32 38 40 37 35 36 31 34 31 357 328 318 267 216 202 197 172 161 162 146 138 115 122 127
37 35 33 37 33 29 26 31 29 27 38 36 37 38 35 32 27 37 34 37 41 42 39 35 36 30 27 35 34 24 318 300 203 171 151 137 129 125 123 121 111 103 83
46 45 41 36 35 32 31 31 31 36 36 37 39 40 40 39 48 48 41 38 39 38 34 32 30 35 39 32 41 60 125 155 159 140 124 121 127 126 130 120 104 87 73
51 45 44 42 39 36 31 30 34 36 41 40 40 46 47 53 55 49 42 38 40 40 36 35 29 37 39 47 46 87 91 113 120 120 123 128 126 130 136 131 119 97 86
50 47 44 32 29 29 31 35 42 35 37 42 41 41 48 51 47 45 44 34 29 28 37 38 36 40 42 52 58 65 110 118 121 124 118 129 128 132 130 133 123 117 107
46 40 44 41 38 35 38 37 48 41 42 46 43 37 36 37 41 41 35 34 33 33 33 36 37 30 46 52 60 72 80 98 119 120 121 124 131 132 130 141 147 139 123
45 49 44 31 32 39 48 41 57 50 52 47 42 41 38 35 32 47 45 39 42 41 38 40 40 42 57 56 63 67 84 94 98 117 121 116 138 139 148 141 147 145 133
57 48 51 47 47 48 42 42 57 44 33 47 45 39 41 42 37 41 33 41 37 34 38 35 39 65 55 48 51 91 96 98 100 104 106 110 119 126 144 136 143 132 123
61 54 47 42 43 41 39 38 42 59 54 44 55 47 47 45 41 37 37 41 37 35 38 40 40 46 50 55 70 73 108 104 105 104 100 102 107 119 123 145 154 145 131
69 52 51 43 38 43 47 50 52 67 61 54 48 47 43 42 46 42 40 37 35 41 45 41 46 49 54 58 78 84 103 105 118 106 92 93 92 93 114 145 179 210 175
68 53 51 50 46 49 51 52 59 65 60 54 47 42 43 39 35 32 39 38 39 39 40 38 49 51 51 48 54 71 92 110 116 106 83 61 42 68 102 133 144 171 210
62 56 52 52 50 48 50 43 45 51 54 52 48 42 45 39 33 33 32 36 42 37 42 38 40 45 44 61 73 58 65 102 125 98 71 69 67 63 72 82 94 90 291
65 60 49 53 47 45 42 44 43 48 49 49 44 36 35 32 29 25 29 28 35 35 42 45 52 51 47 64 70 71 68 74 83 70 82 89 81 73 58 65 88 85 95
89 64 37 32 47 37 23 18 27 35 38 41 38 33 33 30 25 25 22 22 35 38 45 45 48 53 51 57 67 72 72 81 86 90 90 88 90 88 80 86 99 102 100
54 77 23 36 26 18 19 4 2 25 25 28 33 25 20 24 22 23 21 24 28 37 51 47 53 52 46 52 54 56 68 74 79 85 81 85 92 87 106 105 112 109 107
18 24 23 10 14 9 13 23 29 29 35 39 30 23 11 22 18 26 22 17 22 37 46 49 41 52 46 46 63 58 58 60 70 78 86 95 101 103 124 128 114 103 103
9 44 30 18 5 3 8 17 13 15 20 21 11 15 18 16 21 15 9 12 22 29 42 41 42 39 35 44 61 60 55 54 60 71 74 82 105 121 138 151 119 96 125
333 83 37 27 9 5 1 15 15 27 28 29 29 23 20 15 12 19 23 26 31 34 34 36 33 33 32 23 30 33 43 68 78 81 70 69 82 102 127 140 134 139 152
51 88 48 15 5 2 357 19 19 24 18 11 1 3 8 13 6 5 16 21 24 28 30 27 24 27 28 27 24 28 16 86 77 65 77 78 71 60 74 150 180 175 192
15 35 25 1 357 349 344 346 349 357 357 358 359 1 357 358 359 10 16 21 27 28 28 20 16 11 22 20 24 27 32 34 62 52 281 313 292 276 289 247 223 225 179
336 263 350 344 338 341 341 337 337 337 343 345 347 354 352 351 5 13 22 18 12 13 11 9 9 3 354 7 14 19 15 28 357 337 259 270 279 255 175 167 205 222 189
292 226 330 307 316 328 330 327 333 337 342 338 337 339 350 1 9 10 1 355 358 358 355 352 349 353 348 346 358 5 11 9 5 316 355 155 53 92 127 205 170 197 184
189 312 323 333 337 343 318 319 323 328 330 331 333 338 346 351 356 359 2 21 16 10 0 345 334 333 333 328 337 347 355 360 19 97 185 110 72 53 35 30 101 151 152
284 268 290 314 325 340 352 348 327 327 339 330 337 339 345 349 353 5 6 2 359 356 358 359 349 333 326 326 326 331 337 357 20 76 174 200 89 24 30 25 97 130 152
307 297 292 324 314 320 337 331 320 322 339 337 345 343 346 350 358 347 352 353 343 341 347 343 350 351 341 336 341 328 329 357 350 97 170 203 202 353 17 39 52 93 68
288 291 297 302 290 312 331 332 337 325 341 342 348 334 333 338 334 348 345 341 343 337 316 324 336 343 333 339 341 318 319 3 321 309 304 210 210 286 237 137 129 13 350